{"data":{"norad_id":60203,"intl_designator":"2024-125A","name":"2024-125A","alt_names":[],"object_type":"PAYLOAD","status":"ACTIVE","operator":null,"country":"US","launch_date":"2024-07-04","launch_site_code":"AFWTR","launch_vehicle":null,"mission":null,"orbit_class":"UNKNOWN","rcs_meters":null,"size_class":null,"mass_kg":null,"dimensions":null,"purposes":[],"wikipedia_slug":null,"has_3d_model":false,"image_url":null,"decayed_at":null,"tle_current":{"epoch":"2026-05-25T02:13:41.923776Z","epoch_age_seconds":64126,"freshness":"FRESH","line1":"1 60203U 24125A   26145.09284634  .00052693  00000+0  56866-3 0  9997","line2":"2 60203  97.2316   2.9666 0007673 293.6203  66.4250 15.63465099106028","mean_motion":15.63465099,"eccentricity":0.0007673,"inclination_deg":97.2316,"raan_deg":2.9666,"arg_perigee_deg":293.6203,"mean_anomaly_deg":66.425,"bstar":0.00056866,"rev_number":10602,"period_min":92.103111282819,"perigee_km":372.47300282155,"apogee_km":382.84044386939,"semimajor_km":6755.7937233455,"source":"CELESTRAK","updated_at":"2026-05-25T13:38:01.906944Z"}}}